CAPE
0 0 0 0 0 0 0 0 0 0 0 0 0 0 0 54 110 214 282 839 1734 1572 509 362 181 80 8 2 0 0 0 0 8 8 0 1 8 2 0 0 3 2 0 0
0 0 0 0 0 0 0 0 0 0 0 0 0 0 0 60 215 202 27 413 955 678 324 109 20 9 12 1 0 0 1 0 0 0 10 7 4 0 0 0 0 0 0 0
0 0 0 0 0 0 0 0 0 0 0 0 0 0 0 0 187 343 221 248 426 593 128 20 37 14 7 1 0 0 0 0 6 0 0 11 0 0 0 0 0 0 0 0
0 0 0 0 0 0 0 0 0 0 0 0 0 0 6 0 88 365 508 483 404 362 138 56 49 17 16 15 17 0 0 13 0 2 5 7 16 6 3 0 0 0 1 5
0 0 0 0 0 0 0 0 0 0 0 0 0 0 44 0 6 397 503 445 431 215 167 77 8 13 13 4 1 1 1 0 0 0 0 0 0 0 0 2 5 5 1 5
0 0 0 0 0 0 0 0 0 0 0 0 2 0 7 17 44 394 272 138 10 3 2 1 0 0 0 0 0 0 0 0 0 0 0 0 0 2 1 4 1 0 0 9
0 0 0 0 0 0 0 0 0 0 0 0 0 0 90 73 205 431 132 1 3 5 1 0 0 0 0 0 0 0 0 0 0 0 0 0 3 6 4 4 2 3 7 15
0 33 0 0 0 0 0 0 0 0 0 0 0 10 139 311 509 25 2 4 3 0 0 0 0 0 0 0 0 0 0 0 0 0 0 1 5 1 0 5 6 8 12 19
3 30 0 0 0 0 0 0 0 0 0 3 42 63 52 392 457 41 1 2 0 0 0 0 0 0 0 0 0 0 0 0 0 0 0 2 4 6 6 12 14 18 6 11
0 0 0 0 0 0 0 0 0 14 8 0 12 32 139 146 108 322 29 0 0 0 0 0 0 0 0 0 0 0 0 0 0 0 3 4 10 12 12 14 15 13 12 28
0 0 0 0 0 0 1 5 0 0 5 0 0 13 0 0 0 172 24 7 0 0 6 2 0 0 0 0 0 0 0 0 1 4 8 13 16 17 30 36 40 46 45 50
0 0 0 0 0 0 0 0 0 0 0 0 0 0 0 0 0 23 3 0 0 7 5 2 0 0 0 0 0 0 2 5 12 21 26 20 33 39 37 41 49 51 59 58
2 8 0 1 15 4 7 1 0 0 1 3 10 46 2 0 0 1 4 1 6 11 0 1 0 0 0 1 1 3 9 12 21 29 33 41 25 24 26 30 56 58 65 65
8 0 0 0 5 2 1 1 0 1 7 28 43 47 60 0 0 1 2 10 3 0 0 0 1 7 8 10 5 6 12 27 23 28 37 21 27 21 20 29 29 30 34 48
122 0 7 1 7 13 17 1 0 0 24 12 28 12 7 1 6 4 3 0 0 7 10 3 10 2 11 3 13 21 14 16 22 25 28 29 51 19 22 22 17 12 16 23
91 0 2 1 16 30 26 13 0 0 0 20 18 25 0 4 11 18 23 18 22 10 9 12 5 10 5 19 23 25 23 24 34 24 30 32 24 31 20 14 21 29 31 30
0 0 0 6 29 23 12 24 21 25 22 17 24 13 14 17 24 50 10 13 8 4 2 6 6 6 21 21 19 12 4 21 23 23 15 32 32 15 34 23 17 18 12 16
11 27 1 3 17 16 9 5 11 22 11 18 11 6 18 29 24 9 1 3 5 6 9 5 10 15 15 14 13 15 13 15 17 20 19 18 13 19 33 29 16 13 11 13
0 11 9 0 13 37 1 9 0 40 33 6 4 12 20 13 1 8 4 2 8 9 12 15 13 14 18 17 9 12 25 26 23 17 19 19 22 19 11 6 0 2 23 29
72 19 32 23 19 13 51 9 43 44 18 1 4 19 13 0 0 0 0 6 7 14 10 13 26 28 14 6 10 17 24 20 15 15 16 22 22 0 0 1 9 26 14 6
28 59 29 9 1 9 65 100 68 16 38 1 1 2 0 0 0 1 5 8 9 7 19 20 31 29 16 23 25 12 14 13 17 16 15 16 1 10 18 13 16 9 2 1
17 15 32 31 23 25 59 12 10 36 0 0 0 0 0 0 0 1 4 8 8 22 29 32 27 23 24 23 16 10 19 21 20 15 17 10 13 12 16 5 2 1 3 1
48 14 16 9 34 36 0 20 1 0 5 0 0 0 0 0 0 0 6 15 27 30 33 21 13 16 13 13 11 18 13 19 17 17 4 5 16 4 2 2 2 0 1 3
34 41 11 2 15 18 0 0 0 0 0 0 0 0 0 0 1 11 26 31 29 29 20 14 13 15 30 25 4 6 6 8 12 8 14 19 2 2 1 4 1 0 1 0
33 15 12 29 44 2 0 0 0 0 0 0 0 0 0 1 15 24 27 27 27 14 16 14 32 9 8 8 7 14 7 3 12 7 5 2 1 1 0 4 1 0 1 1
28 26 22 59 26 37 29 0 0 0 0 0 0 0 0 16 20 30 28 31 7 3 13 25 0 0 1 2 1 5 9 1 2 2 2 1 1 2 0 0 3 0 0 0
CIN
-0 -0 -0 -0 -0 -0 -0 -0 -0 -0 -0 -0 -0 -0 -0 -100 -100 -96 -99 -74 -3 -4 -215 -261 -282 -326 -334 -1 -0 -0 -0 -0 -33 -92 -0 -132 -120 -114 -0 -0 -79 -47 -0 -0
-0 -0 -0 -0 -0 -0 -0 -0 -0 -0 -0 -0 -0 -0 -0 -90 -107 -143 -122 -110 -69 -160 -265 -377 -422 -418 -252 -0 -0 -0 -29 -0 -0 -0 -121 -40 -0 -0 -0 -0 -0 -0 -0 -0
-0 -0 -0 -0 -0 -0 -0 -0 -0 -0 -0 -0 -0 -0 -0 -0 -73 -92 -159 -194 -147 -115 -298 -406 -329 -357 -353 -0 -0 -0 -0 -0 -57 -0 -0 -35 -0 -0 -0 -0 -0 -0 -0 -0
-0 -0 -0 -0 -0 -0 -0 -0 -0 -0 -0 -0 -0 -0 -4 -0 -40 -74 -95 -112 -132 -133 -212 -231 -227 -260 -0 -0 -0 -0 -1 -66 -7 -1 -3 -11 -29 -40 -54 -0 -0 -0 -0 -0
-0 -0 -0 -0 -0 -0 -0 -0 -0 -0 -0 -0 -0 -0 -5 -0 -1 -39 -96 -116 -98 -144 -134 -131 -0 -0 -0 -0 -0 -0 -0 -0 -0 -0 -0 -0 -0 -2 -1 -1 -0 -1 -1 -0
-0 -0 -0 -0 -0 -0 -0 -0 -0 -0 -0 -0 -6 -0 -6 -6 -23 -25 -146 -181 -60 -0 -0 -0 -0 -0 -0 -0 -0 -0 -0 -0 -0 -0 -0 -0 -0 -1 -1 -2 -1 -0 -0 -1
-0 -0 -0 -0 -0 -0 -0 -0 -0 -0 -0 -0 -0 -0 -9 -40 -46 -37 -182 -0 -0 -0 -0 -0 -0 -0 -0 -0 -0 -0 -0 -0 -0 -0 -0 -0 -1 -0 -1 -1 -1 -1 -2 -1
-0 -6 -0 -0 -0 -0 -0 -0 -0 -0 -0 -0 -0 -3 -9 -66 -84 -71 -0 -0 -0 -0 -0 -0 -0 -0 -0 -0 -0 -0 -0 -0 -0 -0 -0 -0 -0 -1 -1 -0 -2 -1 -1 -1
-0 -2 -0 -0 -0 -0 -0 -0 -0 -0 -0 -1 -3 -4 -92 -43 -36 -150 -0 -0 -0 -0 -0 -0 -0 -0 -0 -0 -0 -0 -0 -0 -0 -0 -0 -0 -0 -0 -0 -0 -1 -1 -1 -1
-0 -0 -0 -0 -0 -0 -0 -0 -0 -4 -2 -0 -3 -3 -2 -4 -5 -3 -10 -0 -0 -0 -0 -0 -0 -0 -0 -0 -0 -0 -0 -0 -0 -0 -0 -1 -1 -1 -1 -1 -0 -1 -1 -0
-0 -0 -0 -0 -0 -0 -2 -1 -0 -0 -2 -0 -1 -3 -40 -0 -0 -3 -27 -1 -0 -0 -1 -0 -0 -0 -0 -0 -0 -0 -0 -0 -0 -1 -1 -1 -0 -0 -1 -0 -1 -0 -1 -1
-0 -0 -0 -0 -0 -0 -0 -0 -0 -0 -0 -0 -0 -0 -0 -0 -2 -58 -0 -0 -0 -1 -0 -1 -0 -0 -0 -0 -0 -0 -1 -2 -0 -1 -1 -1 -1 -1 -0 -0 -1 -1 -1 -1
-5 -1 -0 -0 -24 -1 -3 -2 -0 -0 -0 -1 -2 -5 -6 -0 -0 -0 -0 -1 -1 -1 -0 -0 -0 -0 -2 -2 -1 -1 -1 -2 -1 -1 -1 -1 -1 -2 -1 -0 -0 -1 -0 -1
-2 -0 -0 -0 -2 -1 -1 -2 -0 -1 -1 -2 -3 -8 -3 -0 -0 -0 -1 -1 -3 -0 -0 -0 -0 -0 -1 -1 -1 -1 -1 -1 -1 -2 -1 -1 -1 -1 -1 -1 -1 -2 -1 -1
-9 -0 -1 -0 -1 -1 -1 -1 -0 -0 -2 -2 -2 -2 -1 -2 -0 -0 -0 -0 -0 -4 -0 -1 -0 -2 -0 -2 -1 -1 -1 -6 -2 -2 -1 -1 -1 -0 -2 -4 -1 -1 -0 -1
-5 -0 -0 -1 -2 -2 -1 -1 -0 -0 -0 -1 -1 -2 -0 -0 -1 -0 -1 -0 -0 -1 -1 -0 -1 -1 -2 -1 -1 -2 -1 -2 -1 -2 -2 -1 -1 -2 -1 -1 -0 -0 -1 -1
-0 -0 -0 -2 -2 -1 -4 -2 -1 -2 -2 -3 -1 -1 -0 -2 -1 -0 -1 -0 -2 -3 -0 -1 -1 -2 -0 -1 -1 -2 -1 -1 -1 -2 -5 -2 -1 -4 -1 -1 -1 -0 -0 -1
-10 -4 -1 -2 -1 -1 -3 -30 -7 -1 -0 -1 -2 -1 -0 -0 -0 -0 -2 -1 -1 -0 -0 -1 -1 -0 -1 -1 -1 -1 -1 -1 -1 -2 -2 -2 -2 -1 -1 -1 -1 -1 -0 -0
-1 -11 -2 -0 -1 -3 -2 -6 -0 -15 -0 -1 -1 -0 -0 -0 -1 -18 -1 -1 -0 -0 -0 -1 -1 -1 -1 -2 -1 -2 -2 -2 -2 -1 -1 -1 -1 -1 -1 -2 -0 -1 -1 -0
-10 -16 -1 -1 -0 -1 -0 -16 -17 -4 -1 -0 -0 -0 -1 -0 -0 -0 -0 -0 -0 -0 -1 -1 -1 -2 -1 -2 -2 -2 -1 -2 -2 -2 -1 -1 -0 -0 -0 -0 -1 -0 -0 -0
-0 -1 -1 -1 -0 -0 -4 -1 -6 -1 -0 -0 -0 -0 -0 -0 -0 -1 -0 -0 -0 -0 -1 -1 -1 -2 -1 -2 -2 -3 -2 -1 -1 -1 -1 -1 -1 -0 -0 -0 -0 -0 -0 -0
-1 -1 -1 -1 -1 -2 -15 -5 -0 -8 -0 -0 -0 -0 -0 -0 -0 -0 -0 -0 -0 -0 -0 -1 -1 -1 -1 -1 -1 -2 -2 -2 -1 -1 -0 -0 -0 -0 -0 -0 -0 -0 -0 -0
-0 -2 -1 -1 -1 -25 -0 -28 -4 -0 -1 -0 -0 -0 -0 -0 -0 -0 -0 -0 -0 -1 -1 -1 -1 -1 -1 -1 -2 -2 -1 -0 -1 -1 -2 -0 -0 -0 -0 -0 -0 -0 -0 -0
-2 -5 -2 -0 -13 -19 -0 -0 -0 -0 -0 -0 -0 -0 -0 -0 -0 -0 -0 -0 -1 -1 -1 -1 -1 -1 -1 -2 -2 -0 -1 -5 -0 -0 -0 -0 -0 -0 -0 -0 -0 -0 -0 -0
-9 -5 -2 -1 -8 -14 -0 -0 -0 -0 -0 -0 -0 -0 -0 -0 -0 -0 -0 -0 -0 -2 -1 -1 -1 -2 -0 -0 -0 -1 -0 -0 -0 -0 -0 -0 -0 -0 -0 -0 -0 -0 -0 -0
-3 -1 -1 -0 -10 -5 -10 -0 -0 -0 -0 -0 -0 -0 -0 -0 -0 -0 -0 -1 -1 -1 -2 -1 -0 -0 -0 -0 -0 -0 -0 -0 -0 -0 -0 -0 -0 -0 -0 -0 -0 -0 -0 -0
Wind_Speed
16 15 18 18 18 18 17 17 19 18 21 21 21 20 22 24 24 23 20 12 10 9 11 11 11 7 7 8 9 10 10 10 14 18 20 21 21 27 28 17 24 28 24 28
13 18 18 16 16 17 18 19 22 16 20 21 19 18 17 21 23 23 21 15 11 11 11 11 11 9 10 10 9 9 11 15 19 20 22 24 21 24 22 16 18 20 26 29
18 17 16 15 17 18 19 23 23 25 27 18 17 18 12 18 21 22 22 18 15 12 11 11 10 9 9 9 11 12 14 18 20 24 25 27 18 16 17 18 21 23 28 32
18 17 15 15 18 20 19 23 24 28 31 27 23 23 12 17 19 21 22 21 19 16 12 11 10 10 8 8 14 14 16 22 26 26 23 17 17 20 23 26 24 29 30 34
17 18 18 17 19 21 23 26 27 28 28 25 13 19 14 18 18 22 22 22 20 18 16 14 13 13 12 15 17 21 20 27 24 21 20 20 24 24 25 26 29 30 29 32
17 17 19 19 18 20 24 28 32 19 20 21 19 21 21 21 22 20 20 21 19 18 17 17 16 16 16 17 17 19 22 25 25 23 21 24 26 27 29 31 32 31 30 28
18 16 16 22 24 19 31 35 35 27 25 25 20 23 20 20 22 22 18 20 19 18 17 17 17 16 17 18 20 22 25 26 26 25 25 27 27 28 29 30 30 29 27 25
21 18 20 23 24 27 29 28 27 33 30 29 23 20 19 21 20 20 20 18 18 18 17 17 17 18 20 22 25 27 29 30 30 29 29 28 28 28 28 28 26 25 25 24
21 19 19 22 24 27 28 23 25 24 21 22 21 20 16 17 20 22 20 19 19 18 18 18 20 21 23 26 28 30 32 32 32 33 31 30 29 28 28 27 26 24 24 23
20 24 20 24 22 20 25 23 24 22 28 29 24 30 22 25 28 20 20 19 17 16 18 20 22 25 27 28 30 31 33 34 34 32 31 30 29 28 27 26 26 26 24 23
22 21 24 24 24 25 21 23 24 22 21 28 30 28 28 30 31 25 20 18 17 17 20 22 25 29 31 32 33 35 36 34 32 31 31 30 28 26 26 26 26 25 23 23
21 23 26 26 21 18 21 24 25 26 27 27 29 30 26 29 29 23 18 17 17 20 23 27 29 30 34 35 34 36 36 32 31 29 29 27 26 26 26 26 26 24 24 24
21 22 28 21 18 15 22 26 22 23 22 24 28 26 24 28 26 21 18 18 19 24 29 30 31 32 35 37 37 36 33 31 30 29 28 26 26 26 26 27 26 25 25 24
20 22 23 26 28 24 26 27 25 22 24 27 26 28 30 27 24 21 19 22 26 28 29 28 30 36 38 37 35 32 32 31 30 28 26 26 26 27 27 28 27 27 27 26
21 26 25 24 24 22 26 26 26 24 23 22 27 27 26 25 23 22 23 26 27 25 27 31 35 38 36 33 32 31 31 31 29 27 26 25 26 27 26 26 27 28 28 27
21 26 25 24 21 22 25 24 22 19 20 21 22 23 23 21 19 23 27 26 29 28 30 34 36 33 32 31 32 32 31 30 30 29 28 27 27 25 25 25 27 28 29 29
22 23 21 23 23 23 23 17 19 18 20 23 24 24 23 25 24 26 30 28 28 31 33 34 31 29 31 30 30 30 31 30 29 29 28 29 27 26 24 25 27 28 29 29
20 19 19 21 21 23 18 18 19 22 20 19 20 23 25 24 25 25 26 30 31 31 31 28 27 28 28 27 28 27 27 26 26 31 32 30 28 24 23 26 28 28 30 29
17 17 18 19 19 16 18 18 18 20 20 19 22 23 24 26 23 22 27 30 29 28 26 26 26 26 24 21 17 17 14 10 2 15 17 28 27 26 27 29 26 20 12 7
16 14 14 17 20 21 17 16 17 21 18 21 23 24 27 29 27 28 30 27 26 24 25 25 25 24 19 17 16 12 10 6 2 2 2 7 17 25 6 3 2 4 2 8
17 18 18 18 19 16 17 17 18 19 22 22 23 25 28 28 26 26 25 24 23 23 24 23 25 22 14 11 13 8 8 4 5 9 9 8 10 5 4 3 3 3 3 6
18 18 19 18 18 18 18 18 21 20 20 21 23 25 26 25 25 24 22 22 23 24 24 24 22 22 15 18 15 10 7 6 14 14 12 8 5 4 3 3 4 3 3 8
16 18 18 19 20 17 18 19 19 19 20 22 24 25 24 24 23 21 22 22 24 25 26 24 21 20 20 22 23 13 8 5 5 7 7 6 4 4 4 6 7 7 9 13
14 16 17 18 16 17 16 17 18 19 20 22 23 23 23 22 21 21 22 24 25 27 27 23 25 22 21 29 25 11 3 3 7 7 7 7 8 9 10 11 9 11 12 16
17 16 18 16 16 16 15 16 16 18 20 22 22 22 21 20 21 21 23 25 27 28 26 27 31 31 13 5 7 5 2 2 9 10 10 10 11 14 14 14 13 16 17 18
14 16 17 17 17 18 16 14 15 18 20 21 20 20 19 19 20 21 23 26 26 27 26 29 31 31 2 3 6 7 6 10 10 10 12 13 14 15 17 19 22 19 20 18
Wind_Direction
43 41 1 3 8 9 9 1 350 356 357 353 352 353 353 352 351 348 348 355 340 339 335 334 333 343 344 346 339 343 352 358 351 344 341 335 337 322 323 348 332 328 343 341
51 10 16 27 27 18 6 357 352 4 3 355 354 351 359 359 356 353 352 359 0 349 343 343 345 350 348 349 359 10 5 349 341 338 335 327 327 335 339 349 349 344 339 337
3 11 27 30 18 5 6 353 351 345 345 352 356 346 3 3 1 360 1 4 2 358 353 350 351 357 5 21 15 7 7 349 336 328 323 320 344 350 348 346 343 341 337 335
6 14 25 20 9 2 357 355 349 341 338 342 348 342 357 8 7 6 4 3 3 5 8 8 13 9 12 5 355 350 344 352 322 317 338 348 344 338 337 334 338 335 334 333
9 12 11 8 4 1 351 345 341 341 341 344 356 353 1 0 359 358 359 359 2 7 7 13 11 1 351 335 337 344 347 330 349 353 346 342 337 334 335 335 334 333 333 334
13 15 7 0 1 356 352 344 337 346 352 350 359 354 352 352 351 358 0 0 5 7 6 5 4 360 353 347 348 350 344 344 348 350 348 342 338 335 333 332 332 335 337 341
357 1 2 353 346 357 341 338 337 343 341 342 353 344 351 353 350 351 359 359 360 3 6 7 6 3 359 357 352 348 345 345 345 345 342 339 337 335 333 334 337 338 341 344
348 352 356 354 352 345 342 347 346 334 337 334 341 348 354 354 358 0 360 1 1 2 7 7 5 1 354 349 346 343 340 339 340 341 340 339 339 338 339 342 343 343 345 346
343 351 355 352 350 347 345 350 347 342 342 341 351 352 356 2 357 355 357 358 357 1 3 1 359 353 347 342 340 340 338 337 336 335 337 339 342 342 343 344 345 347 347 348
346 337 347 346 349 359 350 353 349 349 338 335 341 337 351 348 342 347 352 353 0 5 2 357 350 346 342 339 338 337 334 335 337 339 340 341 343 344 345 346 344 343 345 346
341 341 337 341 346 345 354 351 351 347 342 334 333 335 342 339 338 340 347 356 3 3 357 354 348 342 338 337 336 334 334 337 339 341 341 342 344 346 347 345 345 345 344 344
346 338 335 335 345 351 352 347 346 341 337 333 330 329 348 345 345 351 357 2 4 359 352 344 342 340 335 334 336 337 336 338 342 343 343 344 346 346 346 346 345 346 345 345
347 342 334 341 352 354 346 344 347 343 341 337 334 338 356 351 355 0 3 3 359 350 344 343 340 340 335 334 335 337 338 340 342 343 343 344 345 347 347 346 346 346 346 347
346 340 333 328 330 335 334 338 344 342 337 337 338 338 343 352 357 4 4 358 350 346 344 346 344 336 336 338 341 342 342 343 342 343 344 346 347 346 345 345 345 344 344 343
340 331 331 330 331 333 332 336 338 337 340 340 339 342 348 353 358 4 359 351 349 350 350 346 341 339 342 346 347 347 345 345 346 345 345 344 345 345 347 348 347 344 343 342
338 327 330 328 332 334 331 337 339 348 346 344 346 349 355 2 8 0 354 357 352 352 350 347 345 348 351 352 350 350 350 349 346 344 344 344 344 347 348 350 347 344 341 341
332 332 332 329 335 335 332 349 350 351 351 347 345 351 358 355 356 356 353 358 357 352 349 349 354 358 356 356 357 355 352 352 351 347 342 338 341 345 349 349 343 343 343 345
344 344 341 336 339 334 354 2 352 346 352 2 2 357 358 0 359 2 3 358 354 354 356 2 5 3 5 5 4 8 6 5 4 335 323 326 342 352 355 347 348 349 342 339
12 7 360 359 357 6 6 13 23 349 353 7 2 2 2 359 360 7 2 359 1 5 11 11 12 12 14 23 33 29 31 31 14 287 280 329 342 348 351 333 307 286 268 71
24 32 20 9 357 353 13 19 16 0 353 5 4 0 356 356 356 358 359 5 11 17 17 16 16 17 32 40 40 40 49 45 34 83 142 88 48 10 96 158 181 232 147 86
13 14 10 9 7 11 17 12 12 1 355 3 3 360 358 357 0 2 8 15 21 21 20 23 20 24 44 48 44 54 54 35 74 85 93 105 93 121 234 217 188 228 201 183
11 10 9 8 7 3 14 10 358 0 7 5 3 1 1 4 7 11 20 25 24 21 23 26 30 33 50 44 54 61 58 72 77 80 88 100 120 127 157 225 182 181 173 147
17 12 7 7 1 12 11 6 8 7 6 4 3 4 8 10 16 27 31 29 25 25 23 29 39 44 43 39 37 60 65 83 107 110 107 111 128 147 153 147 143 133 129 130
25 17 9 5 14 13 15 15 15 15 11 8 8 11 14 20 30 34 33 25 26 23 22 35 32 42 46 15 33 77 122 131 119 123 125 125 124 127 133 130 131 131 129 129
13 13 5 8 15 18 19 19 21 18 14 12 13 16 22 34 34 35 27 27 28 24 34 33 16 10 76 110 109 116 117 114 126 124 120 122 124 123 124 123 120 124 125 126
24 14 13 10 10 10 17 29 28 21 18 17 21 26 37 38 35 34 24 28 35 34 43 38 40 39 19 115 120 120 123 124 123 122 122 123 123 121 123 123 119 119 120 123